IW3HBX-13 Weather Reports


Display with metric or nautical units.
time (UTC)temp
F
wind
direction
speed
MPH
gust
MPH
rain 1hr
in
rain 24hr
in
rain mn
in
humidity
%
barometer
mb
20260508173609 69 146 2.0 3.0 0.00 0.00 0.00 61 1014.9
20260508173007 69 130 3.0 4.0 0.00 0.00 0.00 61 1015.0
20260508172406 69 158 3.0 4.0 0.00 0.00 0.00 60 1014.9
20260508171806 69 141 2.0 2.0 0.00 0.00 0.00 59 1014.9
20260508170607 70 166 2.0 4.0 0.00 0.00 0.00 58 1014.9
20260508165411 70 149 3.0 5.0 0.00 0.00 0.00 58 1014.8
20260508165407 70 150 3.0 6.0 0.00 0.00 0.00 58 1014.9
20260508164810 70 142 2.0 6.0 0.00 0.00 0.00 58 1015.0
20260508163607 70 149 3.0 5.0 0.00 0.00 0.00 58 1014.8
20260508163010 71 165 2.0 4.0 0.00 0.00 0.00 59 1014.8
20260508162408 71 149 3.0 5.0 0.00 0.00 0.00 59 1014.8
20260508161807 71 147 4.0 6.0 0.00 0.00 0.00 59 1014.7
20260508160607 71 97 3.0 4.0 0.00 0.00 0.00 58 1014.7
20260508155410 71 145 3.0 6.0 0.00 0.00 0.00 58 1014.7
20260508154809 72 329 2.0 3.0 0.00 0.00 0.00 58 1014.7
20260508153607 72 104 3.0 5.0 0.00 0.00 0.00 57 1014.6
20260508153008 73 194 1.0 2.0 0.00 0.00 0.00 58 1014.7
20260508152408 73 194 1.0 2.0 0.00 0.00 0.00 57 1014.7
20260508151807 72 122 2.0 3.0 0.00 0.00 0.00 58 1014.8
20260508150607 73 168 2.0 3.0 0.00 0.00 0.00 56 1014.7
20260508145410 73 137 1.0 3.0 0.00 0.00 0.00 56 1014.9
20260508144807 73 168 3.0 5.0 0.00 0.00 0.00 57 1014.8
20260508143607 73 172 3.0 4.0 0.00 0.00 0.00 58 1014.9
20260508143009 73 118 2.0 3.0 0.00 0.00 0.00 58 1015.1
20260508142407 73 63 2.0 4.0 0.00 0.00 0.00 59 1014.9
20260508141808 73 72 3.0 4.0 0.00 0.00 0.00 59 1015.0
20260508140607 73 159 1.0 4.0 0.00 0.00 0.00 59 1015.1
20260508135407 73 113 2.0 6.0 0.00 0.00 0.00 60 1015.1
20260508134807 73 153 3.0 6.0 0.00 0.00 0.00 60 1015.1
20260508133609 74 190 2.0 4.0 0.00 0.00 0.00 60 1015.3
20260508133007 74 168 2.0 5.0 0.00 0.00 0.00 59 1015.3
20260508132409 75 88 1.0 3.0 0.00 0.00 0.00 59 1015.3
20260508131807 74 60 0.0 0.0 0.00 0.00 0.00 52 1015.3
20260508130610 74 71 3.0 3.0 0.00 0.00 0.00 52 1015.4
20260508125407 73 65 1.0 3.0 0.00 0.00 0.00 54 1015.5
20260508124808 74 322 2.0 4.0 0.00 0.00 0.00 53 1015.5
20260508123609 74 289 1.0 2.0 0.00 0.00 0.00 52 1015.6
20260508123008 73 36 2.0 3.0 0.00 0.00 0.00 53 1015.7
20260508122407 74 294 1.0 3.0 0.00 0.00 0.00 54 1015.7
20260508121807 74 301 2.0 2.0 0.00 0.00 0.00 54 1015.8
20260508120607 74 56 1.0 2.0 0.00 0.00 0.00 53 1015.9
20260508115409 72 78 1.0 2.0 0.00 0.00 0.00 55 1015.8
20260508114810 71 65 2.0 6.0 0.00 0.00 0.00 56 1015.9
20260508113607 74 26 0.0 1.0 0.00 0.00 0.00 52 1015.9
20260508113007 74 72 2.0 2.0 0.00 0.00 0.00 53 1016.0
20260508112408 71 64 1.0 2.0 0.00 0.00 0.00 55 1016.0
20260508111810 71 67 3.0 5.0 0.00 0.00 0.00 57 1016.0
20260508110608 72 249 0.0 0.0 0.00 0.00 0.00 57 1016.2
20260508105409 72 104 1.0 2.0 0.00 0.00 0.00 56 1016.3
20260508104808 71 96 1.0 2.0 0.00 0.00 0.00 57 1016.3
20260508103608 72 106 2.0 5.0 0.00 0.00 0.00 58 1016.4
20260508103007 72 43 1.0 2.0 0.00 0.00 0.00 56 1016.4
20260508102407 71 76 2.0 3.0 0.00 0.00 0.00 56 1016.6
20260508101808 71 149 2.0 3.0 0.00 0.00 0.00 57 1016.6
20260508100608 69 62 2.0 3.0 0.00 0.00 0.00 62 1016.6
20260508095407 69 64 3.0 5.0 0.00 0.00 0.00 63 1016.7
20260508094808 68 67 2.0 3.0 0.00 0.00 0.00 66 1016.7
20260508093610 69 65 0.0 1.0 0.00 0.00 0.00 61 1016.8
20260508093009 70 60 3.0 5.0 0.00 0.00 0.00 62 1016.9
20260508092410 69 118 2.0 3.0 0.00 0.00 0.00 66 1016.8
20260508091807 69 91 2.0 4.0 0.00 0.00 0.00 65 1016.9
20260508090608 67 28 2.0 4.0 0.00 0.00 0.00 69 1016.9
20260508085407 66 65 1.0 2.0 0.00 0.00 0.00 68 1016.9
20260508084810 67 62 1.0 2.0 0.00 0.00 0.00 70 1016.9
20260508084210 67 351 3.0 5.0 0.00 0.00 0.00 70 1016.9
20260508083608 66 35 3.0 5.0 0.00 0.00 0.00 72 1016.9
20260508083007 66 345 4.0 8.0 0.00 0.00 0.00 72 1016.9
20260508082410 66 324 3.0 4.0 0.00 0.00 0.00 71 1016.9
20260508081807 66 305 2.0 4.0 0.00 0.00 0.00 73 1017.0
20260508081208 66 66 3.0 5.0 0.00 0.00 0.00 74 1017.0
20260508080606 65 48 2.0 4.0 0.00 0.00 0.00 75 1016.9
20260508075409 64 7 1.0 2.0 0.00 0.00 0.00 76 1016.8
20260508074807 64 14 3.0 4.0 0.00 0.00 0.00 77 1017.0
20260508073607 63 55 1.0 3.0 0.00 0.00 0.00 78 1017.0
20260508073007 63 33 2.0 4.0 0.00 0.00 0.00 78 1016.9
20260508072408 64 63 1.0 4.0 0.00 0.00 0.00 77 1017.0
20260508071809 64 65 1.0 3.0 0.00 0.00 0.00 77 1016.9
20260508070608 61 39 2.0 4.0 0.00 0.00 0.00 81 1016.7
20260508065410 60 66 3.0 5.0 0.00 0.00 0.00 84 1016.8
20260508064808 60 54 3.0 4.0 0.00 0.00 0.00 83 1016.8
20260508063608 59 69 3.0 4.0 0.00 0.00 0.00 84 1016.8
20260508063009 58 59 3.0 5.0 0.00 0.00 0.00 86 1016.7
20260508062408 59 54 3.0 4.0 0.00 0.00 0.00 84 1016.7
20260508061810 58 69 2.0 5.0 0.00 0.00 0.00 86 1016.6
20260508060610 58 69 3.0 4.0 0.00 0.00 0.00 86 1016.5
20260508055409 57 56 3.0 5.0 0.00 0.00 0.00 87 1016.4
20260508054807 58 61 2.0 4.0 0.00 0.00 0.00 86 1016.4
20260508054209 57 62 4.0 6.0 0.00 0.00 0.00 86 1016.2
20260508053607 58 67 2.0 4.0 0.00 0.00 0.00 84 1016.2
20260508053010 58 54 3.0 5.0 0.00 0.00 0.00 85 1016.2
20260508052409 57 65 4.0 5.0 0.00 0.00 0.00 85 1016.2
20260508051808 57 64 3.0 5.0 0.00 0.00 0.00 86 1016.2
20260508051210 57 62 3.0 5.0 0.00 0.00 0.00 85 1016.1
20260508050610 57 69 4.0 5.0 0.00 0.00 0.00 85 1016.1
20260508045407 57 69 3.0 5.0 0.00 0.00 0.00 85 1015.9
20260508044809 56 66 3.0 5.0 0.00 0.00 0.00 85 1015.8
20260508043608 56 66 3.0 6.0 0.00 0.00 0.00 86 1015.9
20260508043007 55 72 3.0 5.0 0.00 0.00 0.00 86 1015.8
20260508042408 55 82 3.0 3.0 0.00 0.00 0.00 87 1015.8
20260508041807 55 77 2.0 3.0 0.00 0.00 0.00 87 1015.8
20260508040607 55 65 3.0 5.0 0.00 0.00 0.00 87 1015.8
20260508035407 55 71 3.0 4.0 0.00 0.00 0.00 87 1015.7
20260508034808 55 69 1.0 2.0 0.00 0.00 0.00 87 1015.7
20260508033609 56 63 2.0 5.0 0.00 0.00 0.00 86 1015.7
20260508033008 56 57 3.0 5.0 0.00 0.00 0.00 86 1015.7
20260508032407 56 69 3.0 4.0 0.00 0.00 0.00 86 1015.7
20260508031807 56 63 3.0 5.0 0.00 0.00 0.00 86 1015.6
20260508030607 55 71 3.0 5.0 0.00 0.00 0.00 86 1015.8
20260508025410 55 71 1.0 3.0 0.00 0.00 0.00 88 1015.9
20260508024810 55 67 1.0 3.0 0.00 0.00 0.00 88 1016.0
20260508023607 55 69 1.0 3.0 0.00 0.00 0.00 88 1016.0
20260508023009 55 67 1.0 2.0 0.00 0.00 0.00 87 1016.0
20260508022408 56 67 0.0 2.0 0.00 0.00 0.00 87 1016.0
20260508021807 56 70 2.0 2.0 0.00 0.00 0.00 87 1016.0
20260508021209 56 63 1.0 3.0 0.00 0.00 0.00 86 1016.0
20260508020607 56 65 4.0 5.0 0.00 0.00 0.00 86 1016.0
20260508015407 56 62 3.0 5.0 0.00 0.00 0.00 86 1016.0
20260508014809 56 72 4.0 6.0 0.00 0.00 0.00 86 1016.0
20260508013608 56 68 2.0 4.0 0.00 0.00 0.00 87 1016.0
20260508013008 56 74 3.0 4.0 0.00 0.00 0.00 87 1016.0
20260508012410 57 69 2.0 4.0 0.00 0.00 0.00 87 1016.0
20260508011807 57 74 3.0 4.0 0.00 0.00 0.00 86 1016.0
20260508011208 57 57 3.0 5.0 0.00 0.00 0.00 87 1016.1
20260508010607 57 49 3.0 4.0 0.00 0.00 0.00 87 1016.2
20260508005410 57 60 3.0 5.0 0.00 0.00 0.00 88 1016.0
20260508004810 57 65 3.0 4.0 0.00 0.00 0.00 88 1016.0
20260508003607 57 62 2.0 4.0 0.00 0.00 0.00 89 1016.0
20260508003009 57 39 2.0 5.0 0.00 0.00 0.00 89 1016.1
20260508002407 58 54 1.0 3.0 0.00 0.00 0.00 89 1016.1
20260508001807 58 67 0.0 2.0 0.00 0.00 0.00 89 1016.0
20260508000607 58 61 1.0 3.0 0.00 0.00 0.00 88 1016.0
20260507235409 58 66 3.0 5.0 0.00 0.00 0.00 88 1016.1
20260507234808 58 66 3.0 3.0 0.00 0.00 0.00 88 1016.2
20260507233607 58 67 3.0 4.0 0.00 0.00 0.00 88 1016.4
20260507233009 58 66 2.0 3.0 0.00 0.00 0.00 88 1016.3
20260507232406 58 35 0.0 2.0 0.00 0.00 0.00 89 1016.3
20260507231807 58 356 1.0 2.0 0.00 0.00 0.00 89 1016.1
20260507230610 58 62 1.0 2.0 0.00 0.00 0.00 89 1016.1
20260507225407 59 63 0.0 0.0 0.00 0.00 0.00 88 1016.2
20260507224810 59 64 0.0 2.0 0.00 0.00 0.00 88 1016.3
20260507224210 59 61 1.0 2.0 0.00 0.00 0.00 87 1016.2
20260507223609 59 63 1.0 2.0 0.00 0.00 0.00 87 1016.2
20260507223008 59 68 3.0 4.0 0.00 0.00 0.00 87 1016.1
20260507222409 59 69 3.0 5.0 0.00 0.00 0.00 87 1016.1
20260507221807 59 68 2.0 4.0 0.00 0.00 0.00 87 1016.1
20260507220607 59 68 2.0 3.0 0.00 0.00 0.00 86 1015.9
20260507215408 59 76 2.0 4.0 0.00 0.00 0.00 85 1015.9
20260507214807 60 75 3.0 4.0 0.00 0.00 0.00 85 1015.9
20260507213609 60 65 2.0 4.0 0.00 0.00 0.00 84 1015.8
20260507213009 60 65 3.0 3.0 0.00 0.00 0.00 83 1015.8
20260507212409 60 65 3.0 4.0 0.00 0.00 0.00 82 1015.8
20260507211809 60 62 2.0 3.0 0.00 0.00 0.00 81 1015.8
20260507210610 61 59 1.0 2.0 0.00 0.00 0.00 79 1015.9
20260507205410 61 66 1.0 3.0 0.00 0.00 0.00 78 1015.9
20260507204810 61 66 2.0 3.0 0.00 0.00 0.00 77 1015.8
20260507203608 62 60 3.0 3.0 0.00 0.00 0.00 77 1015.8
20260507203007 62 61 2.0 3.0 0.00 0.00 0.00 77 1015.8
20260507202409 62 70 3.0 4.0 0.00 0.00 0.00 77 1015.8
20260507201810 62 62 3.0 6.0 0.00 0.00 0.00 78 1015.7
20260507200607 62 65 3.0 3.0 0.00 0.00 0.00 78 1015.4
20260507195407 62 74 2.0 3.0 0.00 0.00 0.00 79 1015.5
20260507194810 62 76 2.0 4.0 0.00 0.00 0.00 79 1015.3
20260507193608 62 68 3.0 5.0 0.00 0.00 0.00 79 1015.1
20260507193007 62 66 4.0 6.0 0.00 0.00 0.00 79 1014.9
20260507192407 63 63 4.0 6.0 0.00 0.00 0.00 79 1014.9
20260507191808 63 66 3.0 6.0 0.00 0.00 0.00 78 1014.7
20260507191210 63 61 3.0 5.0 0.00 0.00 0.00 76 1014.6
20260507190607 64 66 3.0 4.0 0.00 0.00 0.00 74 1014.5
20260507185408 64 87 2.0 2.0 0.00 0.00 0.00 73 1014.4
20260507184808 64 79 2.0 4.0 0.00 0.00 0.00 72 1014.2
20260507183607 65 59 2.0 4.0 0.00 0.00 0.00 70 1014.1
20260507183007 65 69 2.0 4.0 0.00 0.00 0.00 70 1014.1
20260507182407 65 72 2.0 4.0 0.00 0.00 0.00 71 1014.0
20260507181807 65 64 3.0 4.0 0.00 0.00 0.00 72 1014.0
20260507180607 66 69 2.0 3.0 0.00 0.00 0.00 71 1013.9
20260507175407 66 75 4.0 5.0 0.00 0.00 0.00 69 1013.6
20260507174810 66 74 3.0 4.0 0.00 0.00 0.00 69 1013.5